NORTHEAST SUFFOLK  -  Special Weather Statement Special Weather Statement        NORTHERN NASSAU  -  Special Weather Statement Special Weather Statement        NORTHWEST SUFFOLK  -  Special Weather Statement Special Weather Statement        SOUTHEAST SUFFOLK  -  Special Weather Statement Special Weather Statement        SOUTHERN NASSAU  -  Special Weather Statement Special Weather Statement        SOUTHWEST SUFFOLK  -  Special Weather Statement Special Weather Statement      

Active alerts

Northern Nassau
  Details for Northern Nassau Special Weather Statement
Southern Nassau
  Details for Southern Nassau Special Weather Statement
Northwest Suffolk
  Details for Northwest Suffolk Special Weather Statement
Southwest Suffolk
  Details for Southwest Suffolk Special Weather Statement
Northeast Suffolk
  Details for Northeast Suffolk Special Weather Statement
Southeast Suffolk
  Details for Southeast Suffolk Special Weather Statement


WXM80 ListenWXM80 Stop

You find our weather info also at:

UK Metoffice

WeatherCloud

Weather Underground

Northeastern Weather Network

AWEKAS

Citizen Weather Observer Program (CWOP)

HAMweather, WeatherForYou, PWS Weather


Weather Underground History page Text

Daily Summary for May 25, 2016 Units:  English    Metric   Both
« Previous Day
Next Day »
Daily Weekly Monthly Yearly Custom
  High: Low: Average:
Temperature: 91.5 °F 54.7 °F 73.1 °F
Dew Point: 60.1 °F 48.6 °F 55.4 °F
Humidity: 98 % 25 % 61 %
Wind Speed: 6.8 mph 0.0 mph 1.9 mph
Wind Gust: 10.4 mph - -
Wind:- - SW
Pressure: 30.04 in 29.95 in -
Precipitation: 0.00 in    
Historical Graphs
 
 
Tabular Data for May 25, 2016
Time Temperature Dew Point Pressure Wind Wind Speed Wind Gust Humidity Rainfall Rate (Hourly)
00:03 59.9 °F 58.2 °F 29.96 in Calm     94 % 0.00 in
00:08 59.9 °F 58.5 °F 29.96 in East 0.3 mph 1.2 mph 95 % 0.00 in
00:13 59.9 °F 58.5 °F 29.96 in Calm   1.2 mph 95 % 0.00 in
00:18 60.0 °F 58.6 °F 29.96 in Calm     95 % 0.00 in
00:23 60.0 °F 58.6 °F 29.96 in Calm     95 % 0.00 in
00:28 60.0 °F 58.6 °F 29.96 in East 0.3 mph 1.2 mph 95 % 0.00 in
00:33 60.0 °F 58.6 °F 29.96 in East 0.1 mph 1.2 mph 95 % 0.00 in
00:39 60.0 °F 58.6 °F 29.96 in Calm     95 % 0.00 in
00:44 60.0 °F 58.6 °F 29.96 in Calm     95 % 0.00 in
00:49 60.0 °F 58.6 °F 29.96 in Calm   1.2 mph 95 % 0.00 in
00:54 60.0 °F 58.6 °F 29.96 in Calm     95 % 0.00 in
00:59 60.0 °F 58.6 °F 29.96 in Calm     95 % 0.00 in
01:04 59.9 °F 58.5 °F 29.95 in Calm     95 % 0.00 in
01:09 59.9 °F 58.8 °F 29.95 in Calm     96 % 0.00 in
01:14 59.9 °F 58.8 °F 29.95 in Calm     96 % 0.00 in
01:19 59.9 °F 58.8 °F 29.96 in Calm     96 % 0.00 in
01:24 59.9 °F 58.8 °F 29.96 in East 0.1 mph 1.2 mph 96 % 0.00 in
01:30 59.9 °F 58.8 °F 29.96 in Calm     96 % 0.00 in
01:40 59.8 °F 58.7 °F 29.96 in Calm     96 % 0.00 in
01:45 59.8 °F 58.7 °F 29.96 in Calm     96 % 0.00 in
01:50 59.7 °F 58.6 °F 29.96 in East 0.1 mph 1.0 mph 96 % 0.00 in
02:00 59.5 °F 58.1 °F 29.97 in Calm     95 % 0.00 in
02:05 59.4 °F 58.0 °F 29.97 in Calm     95 % 0.00 in
02:10 59.3 °F 57.9 °F 29.97 in East 0.8 mph 2.0 mph 95 % 0.00 in
02:15 59.2 °F 57.8 °F 29.97 in Calm     95 % 0.00 in
02:21 59.1 °F 57.7 °F 29.97 in Calm     95 % 0.00 in
02:26 59.0 °F 57.6 °F 29.97 in Calm     95 % 0.00 in
02:31 58.9 °F 57.5 °F 29.97 in Calm     95 % 0.00 in
02:36 58.7 °F 57.3 °F 29.97 in Calm     95 % 0.00 in
02:41 58.6 °F 57.2 °F 29.97 in Calm     95 % 0.00 in
02:46 58.4 °F 57.0 °F 29.97 in Calm     95 % 0.00 in
02:56 58.2 °F 56.8 °F 29.98 in Calm     95 % 0.00 in
03:01 58.0 °F 56.3 °F 29.98 in Calm     94 % 0.00 in
03:06 57.8 °F 56.1 °F 29.99 in Calm     94 % 0.00 in
03:12 57.6 °F 55.9 °F 29.98 in Calm     94 % 0.00 in
03:17 57.5 °F 55.8 °F 29.98 in Calm     94 % 0.00 in
03:22 57.4 °F 55.7 °F 29.98 in Calm     94 % 0.00 in
03:27 57.2 °F 55.5 °F 29.98 in Calm     94 % 0.00 in
03:37 56.9 °F 55.2 °F 29.98 in Calm     94 % 0.00 in
03:42 56.8 °F 55.1 °F 29.98 in Calm     94 % 0.00 in
03:47 56.7 °F 55.0 °F 29.98 in Calm     94 % 0.00 in
03:52 56.5 °F 54.8 °F 29.98 in Calm     94 % 0.00 in
03:57 56.4 °F 54.7 °F 29.98 in Calm     94 % 0.00 in
04:03 56.3 °F 54.6 °F 29.98 in Calm     94 % 0.00 in
04:08 56.2 °F 54.5 °F 29.98 in East 0.4 mph 1.2 mph 94 % 0.00 in
04:13 56.1 °F 54.4 °F 29.98 in East 0.1 mph 1.2 mph 94 % 0.00 in
04:18 56.0 °F 54.6 °F 29.99 in Calm     95 % 0.00 in
04:23 55.9 °F 54.5 °F 29.98 in East 0.1 mph 1.2 mph 95 % 0.00 in
04:28 55.8 °F 54.4 °F 29.98 in East 0.1 mph 1.2 mph 95 % 0.00 in
04:33 55.8 °F 54.4 °F 29.99 in Calm   1.2 mph 95 % 0.00 in
04:38 55.7 °F 54.3 °F 29.98 in Calm     95 % 0.00 in
04:43 55.7 °F 54.3 °F 29.99 in Calm     95 % 0.00 in
04:48 55.6 °F 54.2 °F 29.99 in Calm   1.2 mph 95 % 0.00 in
04:54 55.5 °F 54.1 °F 29.99 in East 0.8 mph 2.3 mph 95 % 0.00 in
04:59 55.5 °F 54.1 °F 29.99 in Calm   1.2 mph 95 % 0.00 in
05:04 55.4 °F 54.3 °F 29.99 in Calm     96 % 0.00 in
05:09 55.4 °F 54.3 °F 29.99 in East 0.1 mph   96 % 0.00 in
05:14 55.3 °F 54.2 °F 29.99 in Calm     96 % 0.00 in
05:19 55.2 °F 54.1 °F 29.99 in Calm     96 % 0.00 in
05:29 55.1 °F 53.7 °F 29.99 in Calm     95 % 0.00 in
05:34 55.0 °F 53.9 °F 29.99 in Calm     96 % 0.00 in
05:39 55.0 °F 53.9 °F 30.00 in Calm     96 % 0.00 in
05:45 54.9 °F 53.8 °F 30.00 in Calm     96 % 0.00 in
05:50 54.8 °F 53.7 °F 30.00 in Calm     96 % 0.00 in
05:55 54.8 °F 53.7 °F 30.00 in Calm     96 % 0.00 in
06:00 54.8 °F 53.7 °F 30.00 in Calm     96 % 0.00 in
06:05 54.7 °F 53.6 °F 30.00 in Calm     96 % 0.00 in
06:10 54.9 °F 53.8 °F 30.00 in East 0.3 mph 1.2 mph 96 % 0.00 in
06:15 55.0 °F 53.9 °F 30.00 in Calm     96 % 0.00 in
06:20 55.1 °F 54.0 °F 30.00 in Calm     96 % 0.00 in
06:25 55.3 °F 54.2 °F 30.00 in Calm     96 % 0.00 in
06:31 55.6 °F 54.8 °F 30.01 in Calm     97 % 0.00 in
06:36 55.9 °F 55.1 °F 30.01 in East 0.4 mph 1.2 mph 97 % 0.00 in
06:41 56.1 °F 55.3 °F 30.01 in Calm   2.3 mph 97 % 0.00 in
06:46 56.4 °F 55.6 °F 30.01 in East 0.6 mph 1.2 mph 97 % 0.00 in
06:51 56.8 °F 56.0 °F 30.02 in East 0.5 mph 2.3 mph 97 % 0.00 in
06:56 57.3 °F 56.7 °F 30.02 in SW 1.0 mph 3.5 mph 98 % 0.00 in
07:01 57.8 °F 57.2 °F 30.02 in WSW 1.2 mph 3.5 mph 98 % 0.00 in
07:06 58.2 °F 57.6 °F 30.02 in WSW 1.7 mph 2.3 mph 98 % 0.00 in
07:11 58.6 °F 58.0 °F 30.02 in WSW 2.4 mph 6.0 mph 98 % 0.00 in
07:16 58.9 °F 58.3 °F 30.03 in West 3.1 mph 6.9 mph 98 % 0.00 in
07:22 59.2 °F 58.3 °F 30.03 in SW 2.6 mph 3.5 mph 97 % 0.00 in
07:27 59.5 °F 58.6 °F 30.03 in SW 2.2 mph 3.5 mph 97 % 0.00 in
07:32 60.0 °F 59.1 °F 30.02 in SW 1.9 mph 3.5 mph 97 % 0.00 in
07:37 60.3 °F 59.4 °F 30.02 in SW 2.5 mph 4.6 mph 97 % 0.00 in
07:42 60.6 °F 59.7 °F 30.03 in SW 2.9 mph 4.6 mph 97 % 0.00 in
07:47 60.8 °F 59.7 °F 30.03 in SW 3.2 mph 4.6 mph 96 % 0.00 in
07:52 61.1 °F 59.7 °F 30.02 in SW 2.7 mph 4.0 mph 95 % 0.00 in
07:57 61.5 °F 59.8 °F 30.03 in WSW 2.8 mph 5.0 mph 94 % 0.00 in
08:02 61.8 °F 59.5 °F 30.03 in SW 2.4 mph 6.9 mph 92 % 0.00 in
08:07 62.2 °F 59.8 °F 30.03 in SW 0.6 mph 3.5 mph 92 % 0.00 in
08:13 62.7 °F 59.7 °F 30.03 in WSW 1.8 mph 3.5 mph 90 % 0.00 in
08:18 63.2 °F 59.6 °F 30.03 in SW 1.1 mph 3.5 mph 88 % 0.00 in
08:23 63.7 °F 59.8 °F 30.03 in SW 3.5 mph 6.9 mph 87 % 0.00 in
08:28 64.2 °F 59.9 °F 30.03 in SSW 3.0 mph 4.6 mph 86 % 0.00 in
08:33 64.6 °F 60.0 °F 30.03 in WSW 2.0 mph 4.0 mph 85 % 0.00 in
08:38 65.0 °F 59.7 °F 30.03 in WSW 2.6 mph 6.0 mph 83 % 0.00 in
08:43 65.5 °F 59.9 °F 30.03 in WSW 2.8 mph 6.0 mph 82 % 0.00 in
08:48 66.0 °F 59.3 °F 30.03 in SSW 4.4 mph 8.1 mph 79 % 0.00 in
08:53 66.4 °F 59.3 °F 30.03 in SW 3.7 mph 6.0 mph 78 % 0.00 in
08:58 66.9 °F 58.7 °F 30.03 in SW 4.5 mph 8.1 mph 75 % 0.00 in
09:04 67.4 °F 58.4 °F 30.03 in WSW 5.7 mph 6.9 mph 73 % 0.00 in
09:09 67.9 °F 58.1 °F 30.03 in SW 3.7 mph 6.9 mph 71 % 0.00 in
09:14 68.3 °F 58.5 °F 30.04 in WSW 5.6 mph 7.0 mph 71 % 0.00 in
09:19 68.8 °F 57.8 °F 30.04 in West 1.7 mph 3.5 mph 68 % 0.00 in
09:29 69.7 °F 57.0 °F 30.03 in WSW 2.8 mph 6.9 mph 64 % 0.00 in
09:34 70.3 °F 58.4 °F 30.03 in West 3.4 mph 4.6 mph 66 % 0.00 in
09:39 70.9 °F 58.1 °F 30.02 in SW 4.3 mph 4.6 mph 64 % 0.00 in
09:44 71.6 °F 57.0 °F 30.02 in SW 4.5 mph 8.1 mph 60 % 0.00 in
09:49 72.2 °F 58.5 °F 30.03 in WSW 3.4 mph 5.0 mph 62 % 0.00 in
09:55 72.8 °F 57.2 °F 30.03 in SW 6.7 mph 8.0 mph 58 % 0.00 in
10:00 73.5 °F 57.3 °F 30.03 in SW 3.6 mph 6.9 mph 57 % 0.00 in
10:05 74.1 °F 57.4 °F 30.03 in WSW 6.8 mph 6.9 mph 56 % 0.00 in
10:10 74.7 °F 58.5 °F 30.03 in West 3.2 mph 6.0 mph 57 % 0.00 in
10:15 75.3 °F 57.5 °F 30.03 in WSW 4.7 mph 9.2 mph 54 % 0.00 in
10:25 76.2 °F 57.3 °F 30.03 in WNW 5.6 mph 7.0 mph 52 % 0.00 in
10:30 76.6 °F 57.7 °F 30.03 in SW 5.1 mph 7.0 mph 52 % 0.00 in
10:35 77.0 °F 56.4 °F 30.03 in WSW 5.6 mph 9.2 mph 49 % 0.00 in
10:40 77.4 °F 56.2 °F 30.03 in SW 5.9 mph 9.2 mph 48 % 0.00 in
10:46 77.7 °F 56.4 °F 30.03 in WSW 5.7 mph 10.0 mph 48 % 0.00 in
10:51 78.2 °F 57.5 °F 30.03 in SW 3.9 mph 9.2 mph 49 % 0.00 in
10:56 78.5 °F 57.2 °F 30.03 in South 2.7 mph 5.8 mph 48 % 0.00 in
11:01 79.0 °F 57.0 °F 30.03 in SW 4.1 mph 6.0 mph 47 % 0.00 in
11:06 79.3 °F 56.7 °F 30.02 in West 3.6 mph 6.9 mph 46 % 0.00 in
11:16 80.2 °F 57.5 °F 30.02 in WSW 6.1 mph 9.2 mph 46 % 0.00 in
11:21 80.5 °F 56.6 °F 30.02 in WSW 5.0 mph 8.1 mph 44 % 0.00 in
11:26 80.8 °F 58.1 °F 30.02 in SW 3.6 mph 8.1 mph 46 % 0.00 in
11:31 81.2 °F 58.5 °F 30.02 in SW 4.1 mph 6.0 mph 46 % 0.00 in
11:36 81.7 °F 57.7 °F 30.03 in WSW 5.1 mph 7.0 mph 44 % 0.00 in
11:41 82.1 °F 58.0 °F 30.03 in SW 4.2 mph 5.8 mph 44 % 0.00 in
11:47 82.6 °F 59.1 °F 30.03 in SSW 2.5 mph 5.8 mph 45 % 0.00 in
11:52 83.0 °F 56.9 °F 30.03 in WSW 3.6 mph 6.9 mph 41 % 0.00 in
11:57 83.5 °F 57.3 °F 30.03 in WSW 3.0 mph 5.0 mph 41 % 0.00 in
12:02 83.7 °F 57.5 °F 30.02 in WNW 6.0 mph 9.2 mph 41 % 0.00 in
12:07 84.2 °F 57.9 °F 30.02 in WSW 3.2 mph 4.0 mph 41 % 0.00 in
12:12 84.5 °F 57.5 °F 30.02 in WSW 3.7 mph 6.0 mph 40 % 0.00 in
12:17 84.8 °F 56.4 °F 30.02 in WSW 2.8 mph 8.1 mph 38 % 0.00 in
12:22 85.0 °F 56.5 °F 30.02 in SSW 6.5 mph 8.1 mph 38 % 0.00 in
12:27 85.1 °F 57.4 °F 30.02 in WSW 3.2 mph 5.8 mph 39 % 0.00 in
12:33 85.5 °F 59.8 °F 30.02 in WSW 3.2 mph 4.0 mph 42 % 0.00 in
12:38 85.9 °F 58.8 °F 30.02 in WSW 2.2 mph 3.5 mph 40 % 0.00 in
12:43 86.2 °F 59.7 °F 30.02 in West 1.9 mph 5.0 mph 41 % 0.00 in
12:48 86.7 °F 57.3 °F 30.02 in WSW 3.5 mph 6.9 mph 37 % 0.00 in
12:53 86.9 °F 57.5 °F 30.02 in SW 3.4 mph 5.8 mph 37 % 0.00 in
12:58 87.3 °F 58.6 °F 30.02 in WSW 1.2 mph 2.3 mph 38 % 0.00 in
13:03 87.6 °F 57.3 °F 30.01 in WNW 4.1 mph 5.8 mph 36 % 0.00 in
13:08 87.8 °F 59.0 °F 30.01 in SW 4.0 mph 5.8 mph 38 % 0.00 in
13:18 88.1 °F 56.2 °F 30.02 in SW 3.1 mph 5.8 mph 34 % 0.00 in
13:24 88.3 °F 56.4 °F 30.01 in SW 5.3 mph 5.3 mph 34 % 0.00 in
13:29 88.2 °F 57.1 °F 30.01 in SSE 5.1 mph 7.0 mph 35 % 0.00 in
13:34 88.2 °F 60.1 °F 30.01 in NW 4.0 mph 6.0 mph 39 % 0.00 in
13:39 88.3 °F 57.2 °F 30.01 in WSW 4.3 mph 8.0 mph 35 % 0.00 in
13:44 88.4 °F 56.5 °F 30.00 in South 5.2 mph 9.2 mph 34 % 0.00 in
13:49 88.6 °F 58.2 °F 30.01 in WSW 2.5 mph 4.6 mph 36 % 0.00 in
13:54 88.9 °F 56.1 °F 30.00 in SW 4.8 mph 9.2 mph 33 % 0.00 in
13:59 89.0 °F 56.2 °F 30.01 in WNW 4.0 mph 6.9 mph 33 % 0.00 in
14:04 89.1 °F 59.4 °F 30.00 in WNW 4.6 mph 4.6 mph 37 % 0.00 in
14:09 89.5 °F 58.2 °F 30.00 in WNW 2.9 mph 8.0 mph 35 % 0.00 in
14:15 89.6 °F 56.7 °F 30.00 in West 5.4 mph 8.1 mph 33 % 0.00 in
14:20 89.7 °F 55.9 °F 30.00 in WSW 3.2 mph 6.9 mph 32 % 0.00 in
14:25 89.8 °F 56.0 °F 30.01 in West 4.2 mph 6.9 mph 32 % 0.00 in
14:30 89.7 °F 55.0 °F 30.01 in SW 5.1 mph 10.4 mph 31 % 0.00 in
14:35 89.8 °F 57.7 °F 30.01 in NW 3.5 mph 6.9 mph 34 % 0.00 in
14:40 90.0 °F 55.3 °F 30.01 in SSW 3.8 mph 6.9 mph 31 % 0.00 in
14:45 90.2 °F 55.5 °F 30.01 in SW 2.6 mph 6.9 mph 31 % 0.00 in
14:50 90.4 °F 55.6 °F 30.01 in West 3.2 mph 7.0 mph 31 % 0.00 in
14:55 90.6 °F 54.0 °F 30.01 in West 4.8 mph 8.1 mph 29 % 0.00 in
15:00 90.7 °F 55.0 °F 30.01 in WSW 2.5 mph 5.8 mph 30 % 0.00 in
15:06 90.8 °F 55.1 °F 30.00 in West 1.4 mph 5.8 mph 30 % 0.00 in
15:16 90.8 °F 53.2 °F 30.00 in WSW 3.6 mph 6.9 mph 28 % 0.00 in
15:21 90.8 °F 54.2 °F 30.00 in SSW 2.0 mph 4.6 mph 29 % 0.00 in
15:26 90.9 °F 54.2 °F 30.00 in West 3.0 mph 6.0 mph 29 % 0.00 in
15:31 91.1 °F 56.3 °F 30.00 in NW 2.0 mph 4.6 mph 31 % 0.00 in
15:36 91.3 °F 53.6 °F 29.99 in SW 4.6 mph 4.6 mph 28 % 0.00 in
15:41 91.3 °F 52.6 °F 29.99 in SSW 4.2 mph 9.2 mph 27 % 0.00 in
15:46 91.5 °F 52.8 °F 29.99 in WSW 5.3 mph 6.0 mph 27 % 0.00 in
15:51 91.5 °F 53.8 °F 29.99 in SW 2.6 mph 9.0 mph 28 % 0.00 in
15:57 91.5 °F 52.8 °F 29.99 in WSW 6.0 mph 8.1 mph 27 % 0.00 in
16:02 91.4 °F 51.7 °F 29.99 in WNW 4.9 mph 8.1 mph 26 % 0.00 in
16:07 91.3 °F 50.5 °F 29.99 in WNW 5.5 mph 9.2 mph 25 % 0.00 in
16:12 91.3 °F 51.6 °F 29.98 in SSW 2.5 mph 4.0 mph 26 % 0.00 in
16:17 91.4 °F 51.7 °F 29.98 in WSW 3.2 mph 8.1 mph 26 % 0.00 in
16:22 91.2 °F 50.5 °F 29.98 in SW 4.0 mph 10.4 mph 25 % 0.00 in
16:27 91.1 °F 52.5 °F 29.98 in West 2.7 mph 6.9 mph 27 % 0.00 in
16:32 90.9 °F 50.2 °F 29.99 in West 6.6 mph 10.4 mph 25 % 0.00 in
16:37 90.6 °F 51.0 °F 29.98 in WSW 2.2 mph 6.9 mph 26 % 0.00 in
16:42 90.6 °F 51.0 °F 29.98 in WSW 3.7 mph 5.8 mph 26 % 0.00 in
16:48 90.6 °F 51.0 °F 29.98 in SSW 2.2 mph 3.5 mph 26 % 0.00 in
16:53 90.6 °F 51.0 °F 29.99 in SW 1.9 mph 3.5 mph 26 % 0.00 in
16:58 90.6 °F 51.0 °F 29.99 in WSW 3.0 mph 6.0 mph 26 % 0.00 in
17:03 90.5 °F 49.9 °F 29.98 in SW 1.9 mph 4.0 mph 25 % 0.00 in
17:08 90.2 °F 49.6 °F 29.98 in WNW 4.0 mph 10.4 mph 25 % 0.00 in
17:13 89.9 °F 49.4 °F 29.98 in SW 3.0 mph 5.0 mph 25 % 0.00 in
17:18 89.7 °F 50.3 °F 29.98 in West 1.0 mph 8.1 mph 26 % 0.00 in
17:23 89.5 °F 49.0 °F 29.98 in SSW 3.4 mph 6.9 mph 25 % 0.00 in
17:28 89.2 °F 49.8 °F 29.98 in SW 2.0 mph 3.5 mph 26 % 0.00 in
17:33 89.0 °F 48.6 °F 29.98 in SW 2.8 mph 4.6 mph 25 % 0.00 in
17:39 88.8 °F 51.5 °F 29.98 in WSW 0.9 mph 3.5 mph 28 % 0.00 in
17:44 88.6 °F 50.3 °F 29.98 in SW 2.7 mph 8.1 mph 27 % 0.00 in
17:49 88.4 °F 50.2 °F 29.99 in West 1.9 mph 3.5 mph 27 % 0.00 in
17:54 88.3 °F 50.1 °F 29.99 in SW 0.8 mph 2.0 mph 27 % 0.00 in
17:59 88.1 °F 50.9 °F 29.99 in SW 4.3 mph 6.9 mph 28 % 0.00 in
18:04 88.0 °F 50.8 °F 29.99 in WSW 3.2 mph 7.0 mph 28 % 0.00 in
18:09 87.7 °F 50.6 °F 29.99 in WSW 2.3 mph 6.0 mph 28 % 0.00 in
18:14 87.6 °F 50.5 °F 29.99 in SW 1.9 mph 3.5 mph 28 % 0.00 in
18:19 87.4 °F 51.2 °F 29.98 in SW 3.3 mph 3.5 mph 29 % 0.00 in
18:24 87.2 °F 53.7 °F 29.99 in SW 1.1 mph 3.5 mph 32 % 0.00 in
18:30 86.9 °F 54.3 °F 29.99 in SSE 0.9 mph 2.3 mph 33 % 0.00 in
18:35 86.4 °F 54.7 °F 29.99 in SSE 0.3 mph 2.3 mph 34 % 0.00 in
18:40 85.7 °F 54.1 °F 29.99 in SW 1.3 mph 3.5 mph 34 % 0.00 in
18:45 85.4 °F 56.2 °F 29.98 in SSW 2.7 mph 6.9 mph 37 % 0.00 in
18:50 84.9 °F 55.0 °F 29.98 in SSW 1.2 mph 3.5 mph 36 % 0.00 in
18:55 84.5 °F 54.6 °F 29.98 in SSE 1.1 mph 3.5 mph 36 % 0.00 in
19:00 84.0 °F 56.4 °F 29.99 in SSE 1.1 mph 2.3 mph 39 % 0.00 in
19:05 83.5 °F 54.5 °F 29.99 in SSE 1.0 mph 3.5 mph 37 % 0.00 in
19:10 83.0 °F 54.8 °F 29.99 in SW 0.8 mph 1.2 mph 38 % 0.00 in
19:15 82.7 °F 55.2 °F 29.99 in SSW 0.5 mph 2.3 mph 39 % 0.00 in
19:21 82.3 °F 54.2 °F 29.98 in SW 0.7 mph 3.5 mph 38 % 0.00 in
19:31 81.4 °F 54.1 °F 29.99 in SSW 0.2 mph 3.5 mph 39 % 0.00 in
19:36 81.0 °F 53.7 °F 29.99 in SSW 0.5 mph 3.5 mph 39 % 0.00 in
19:41 80.6 °F 54.0 °F 29.99 in SSW 0.3 mph 2.3 mph 40 % 0.00 in
19:46 80.1 °F 53.6 °F 29.99 in SW 0.6 mph 2.3 mph 40 % 0.00 in
19:51 79.7 °F 53.2 °F 29.99 in SSW 0.5 mph 3.5 mph 40 % 0.00 in
19:56 79.3 °F 53.6 °F 29.99 in SSW 1.2 mph 3.0 mph 41 % 0.00 in
20:01 79.0 °F 53.3 °F 29.99 in SSW 0.4 mph 2.3 mph 41 % 0.00 in
20:06 78.6 °F 52.9 °F 29.99 in SSW 0.2 mph 2.3 mph 41 % 0.00 in
20:12 78.2 °F 52.6 °F 29.99 in SW 0.6 mph 4.6 mph 41 % 0.00 in
20:17 77.8 °F 52.2 °F 29.98 in SSW 1.1 mph 3.5 mph 41 % 0.00 in
20:22 77.5 °F 52.6 °F 29.99 in SW 1.2 mph 3.5 mph 42 % 0.00 in
20:27 77.2 °F 53.0 °F 29.99 in SW 1.3 mph 3.5 mph 43 % 0.00 in
20:32 76.9 °F 52.7 °F 29.99 in SSW 1.1 mph 3.0 mph 43 % 0.00 in
20:42 76.2 °F 52.7 °F 29.99 in South 1.5 mph 4.0 mph 44 % 0.00 in
20:47 76.0 °F 52.5 °F 30.00 in SW 2.1 mph 3.5 mph 44 % 0.00 in
20:52 75.7 °F 52.2 °F 30.00 in WSW 2.2 mph 4.6 mph 44 % 0.00 in
20:57 75.5 °F 52.1 °F 30.00 in South 2.7 mph 6.0 mph 44 % 0.00 in
21:03 75.4 °F 52.6 °F 30.00 in SSW 1.6 mph 3.5 mph 45 % 0.00 in
21:13 75.2 °F 52.4 °F 30.00 in WSW 1.1 mph 2.3 mph 45 % 0.00 in
21:18 75.1 °F 52.9 °F 30.00 in WSW 0.7 mph 2.3 mph 46 % 0.00 in
21:23 75.0 °F 52.8 °F 30.00 in WSW 0.6 mph 3.5 mph 46 % 0.00 in
21:28 74.8 °F 53.2 °F 30.01 in WSW 0.7 mph 2.3 mph 47 % 0.00 in
21:33 74.7 °F 53.1 °F 30.01 in SW 1.3 mph 3.5 mph 47 % 0.00 in
21:38 74.5 °F 52.9 °F 30.01 in SW 0.9 mph 2.3 mph 47 % 0.00 in
21:43 74.4 °F 53.4 °F 30.01 in SW 0.4 mph 3.5 mph 48 % 0.00 in
21:48 74.2 °F 52.7 °F 30.01 in SW 0.1 mph 1.2 mph 47 % 0.00 in
21:54 74.0 °F 53.1 °F 30.01 in SW 0.9 mph 2.3 mph 48 % 0.00 in
21:59 73.9 °F 53.0 °F 30.01 in SW 0.1 mph 1.2 mph 48 % 0.00 in
22:04 73.7 °F 52.8 °F 30.02 in West 0.5 mph 2.3 mph 48 % 0.00 in
22:09 73.5 °F 52.6 °F 30.02 in SW 1.4 mph 3.5 mph 48 % 0.00 in
22:14 73.4 °F 53.1 °F 30.02 in SW 0.1 mph 1.2 mph 49 % 0.00 in
22:19 73.2 °F 53.4 °F 30.02 in SW 0.5 mph 2.0 mph 50 % 0.00 in
22:24 73.0 °F 53.3 °F 30.02 in SW 0.3 mph 1.2 mph 50 % 0.00 in
22:29 72.8 °F 53.6 °F 30.02 in SW 0.5 mph 2.0 mph 51 % 0.00 in
22:39 72.4 °F 53.2 °F 30.02 in Calm   3.5 mph 51 % 0.00 in
22:45 72.2 °F 53.1 °F 30.02 in SW 0.3 mph 1.2 mph 51 % 0.00 in
22:50 72.0 °F 52.9 °F 30.02 in WSW 0.7 mph 3.5 mph 51 % 0.00 in
22:55 71.9 °F 53.3 °F 30.02 in Calm   1.2 mph 52 % 0.00 in
23:00 71.7 °F 53.7 °F 30.02 in SSW 1.3 mph 3.5 mph 53 % 0.00 in
23:05 71.6 °F 53.6 °F 30.02 in Calm   1.2 mph 53 % 0.00 in
23:10 71.4 °F 53.4 °F 30.02 in SSW 0.2 mph 1.2 mph 53 % 0.00 in
23:15 71.3 °F 53.3 °F 30.02 in Calm     53 % 0.00 in
23:20 71.1 °F 53.6 °F 30.02 in Calm     54 % 0.00 in
23:25 70.9 °F 53.4 °F 30.01 in SSW 0.5 mph 1.0 mph 54 % 0.00 in
23:30 70.8 °F 54.3 °F 30.01 in Calm     56 % 0.00 in
23:41 70.3 °F 53.9 °F 30.02 in Calm     56 % 0.00 in
23:46 70.1 °F 53.7 °F 30.01 in Calm     56 % 0.00 in
23:51 69.9 °F 53.5 °F 30.01 in SSW 0.9 mph 2.3 mph 56 % 0.00 in
23:56 69.7 °F 53.3 °F 30.02 in SSW 0.9 mph 2.0 mph 56 % 0.00 in
Crab Meadow Weather
Compliments of Weather Underground - 2.75 mb

Script developed by  Jim McMurry - jmcmurry@mwt.net Adapted for the template by  Wim van der Kuil - Leuven-Template.eu

Recycling: Americans threw away 38 billion plastic water bottles in 2006. A million and a half barrels of oil - enough to fuel 100,000 cars for a year - were used to produce the bottles.